Other Surface Observations
Issued by NWS Tucson, AZ

Home | Current Version | Previous Version | Text Only | Print | Product List | Glossary On
Versions: 1 2 3 4 5 6 7 8 9 10 11 12 13 14 15 16 17 18 19 20 21 22 23 24 25 26 27 28 29 30 31 32 33 34 35 36 37 38 39 40 41 42 43 44 45 46 47 48 49 50
000
SXUS55 KTWC 240116
OSOTWC

WEATHER ROUNDUP FOR SOUTHEAST ARIZONA
NATIONAL WEATHER SERVICE TUCSON AZ
615 PM MST TUE SEP 23 2014

AZZ504>506-514-240215-
LOCATION       SKY/WX    TMP DP  RH WIND       PRES   REMARKS
TUCSON         PTCLDY    94  57  28 NW15      29.93S
DAVIS-MONTHAN  PTCLDY    92  58  32 NW16      29.92S
CHILDRENS PARK N/A       95  59  30 NW8               PIMA CO DEQ
ALVERNON/22ND  N/A      N/A N/A N/A N/A               PIMA CO DEQ
CHERRY/GLENN   N/A      N/A N/A N/A N/A               PIMA CO DEQ
TANGERINE      N/A       97 N/A N/A NW9               PIMA CO DEQ
CONTL RANCH    N/A       96  59  29 NW12              PIMA CO DEQ
GRANT/1ST      N/A       96  59  29 NW8               PIMA CO DEQ
CRAYCROFT/22ND N/A      N/A N/A N/A N/A               PIMA CO DEQ
GOLFLINKS/KOLB N/A       96  59  29 NW8               PIMA CO DEQ
AJO/12TH       N/A       96  57  27 NW7               PIMA CO DEQ
SAGUARO EAST   N/A      N/A N/A N/A N/A               PIMA CO DEQ
FAIRGROUNDS    N/A       94 N/A N/A N7                PIMA CO DEQ
SAGUARO        N/A       98  56  25 N3G13             *SABINO CYN
SAN CARLOS     N/A       96  50  21 W4G10             *SAN CARLOS
GREEN VALLEY   N/A       93  54  27 NE6               PIMA CO DEQ
HORSE CAMP CYN N/A       90  52  28 N3G12             *ARAVAIPA CYN
RINCON MTNS    N/A       65  50  58 N3                *NR MANNING CAMP
$$

AZZ509>511-240215-
LOCATION       SKY/WX    TMP DP  RH WIND       PRES   REMARKS
SAFFORD        FAIR      88  59  37 S6        29.97R
STRAY HORSE    N/A       68  55  64 W6G12             *
TRAIL CABIN    N/A       76  55  49 SW3G10            *N OF GRANVILLE
BLACK HILLS    N/A       87  58  37 S5                *N OF FT THOMAS
DRY LAKE       N/A       68  51  54 W3                *NATANES MTNS
NOON CREEK     N/A       72  59  64 SW6               *PINALENO MTNS
COLUMBINE      N/A       67  55  65 CALM              *PINALENO MTNS
GUTHRIE        N/A       79  55  43 S2G11             *SW OF GUTHRIE
$$

AZZ502-503-513-240215-
LOCATION       SKY/WX    TMP DP  RH WIND       PRES   REMARKS
NOGALES        PTCLDY    82  64  54 SE5       30.03R
SELLS          N/A       96  53  24 N6G15             *
SASABE         N/A       91  53  28 N8G15             *ALTAR VLY
HOPKINS        N/A       73  54  52 N6G15             *SANTA RITA MTNS
CARR CYN       N/A       71  62  73 SW2               *W OF HEREFORD
$$

AZZ507-508-512-240215-
LOCATION       SKY/WX    TMP DP  RH WIND       PRES   REMARKS
SIERRA VISTA   PTCLDY    81  63  54 E5        30.11R
DOUGLAS        PTCLDY    82  59  45 E6        30.06R
EMPIRE MTNS    N/A       82  59  45 CALM              *LAS CIENEGAS NCA
MULESHOE RANCH N/A       84  58  41 NE4G10            *PRESERVE
HEADQUARTERS   N/A       78  58  51 E5G11             *CHIRICAHUA MTNS
$$

.............................NOTES.............................
THIS IS AN AUTOMATED COLLECTIVE WITH MINIMAL QUALITY CONTROL.
PIMA CO DEQ SITES HAVE NONSTANDARD WIND SENSOR HEIGHTS.
PIMA CO DEQ SITES DO NOT REPORT WIND GUSTS.
* INDICATES WIND SENSORS LOCATED AT 20 FEET INSTEAD OF 33 FEET.
..............................KEY..............................
SKY/WX - SKY CONDITION/WEATHER
TMP    - TEMPERATURE IN FAHRENHEIT
DP     - DEWPOINT IN FAHRENHEIT
RH     - RELATIVE HUMIDITY IN PERCENT
WIND   - DIRECTION AND SPEED IN MILES PER HOUR (MPH)
VRB    - VARIABLE WIND DIRECTION
PRES   - MEAN SEA LEVEL PRESSURE IN INCHES OF MERCURY
         F - FALLING PRESSURE   R - RISING PRESSURE
         S - STEADY PRESSURE
VSB    - VISIBILITY IN MILES
HX     - HEAT INDEX IN FAHRENHEIT
WCI    - WIND CHILL INDEX IN FAHRENHEIT
N/A    - NOT AVAILABLE
AFB    - AIR FORCE BASE
         DAVIS-MONTHAN IS DAVIS-MONTHAN AIR FORCE BASE
CYN    - CANYON
MTNS   - MOUNTAINS
NCA    - NATIONAL CONSERVATION AREA
NR     - NEAR
VLY    - VALLEY
CONTL  - CONTINENTAL
PIMA CO DEQ - PIMA COUNTY DEPT OF ENVIRONMENTAL QUALITY



USA.gov is the U.S. government's official web portal to all federal, state and local government web resources and services.